Medford, WI

2:12 PM CDT on June 25, 2017 (GMT -0500)
Taylor County

Weather History for KMDZ - November, 2011

Change the Weather History Date:

Saturday, November 19, 2011

  Actual Average Record
Temperature  
Mean Temperature 30 °F -  
Max Temperature 35 °F 37 °F 59 °F (1953)
Min Temperature 26 °F 22 °F 2 °F (1961)
Degree Days  
Heating Degree Days 34    
Moisture  
Dew Point 29 °F    
Average Humidity 88    
Maximum Humidity 93    
Minimum Humidity 75    
Precipitation  
Precipitation 0.00 in - - ()
Sea Level Pressure  
Sea Level Pressure 29.71 in    
Wind  
Wind Speed 4 mph (NE)    
Max Wind Speed 12 mph    
Max Gust Speed 17 mph    
Visibility 7 miles    
Events Snow    
Averages and records for this station are not official NWS values.
T = Trace of Precipitation, MM = Missing Value Source: NWS Daily Summary

Daily Weather History Graph

Daily Weather History Graph

Search for Another Location

Airport or City:

Trip Planner

Search our weather history database for the weather conditions in past years. The results will help you decide how hot, cold, wet, or windy it might be!

Date:

Astronomy

Nov. 19, 2011 Rise Set
Actual Time 7:04 AM CST 4:28 PM CST
Civil Twilight 6:32 AM CST 5:00 PM CST
Nautical Twilight 5:56 AM CST 5:36 PM CST
Astronomical Twilight 5:21 AM CST 6:11 PM CST
Moon 12:08 AM CST (11/19) 1:01 PM CST (11/19)
Length of Visible Light 10h 28m
Length of Day
9h 24m
Last Quarter, 38% of the Moon is Illuminated
Nov 19
Last Quarter
Nov 25
New
Dec 2
First Quarter
Dec 10
Full
Dec 17
Last Quarter

Hourly Weather History & Observations

Time (CST) Temp. Windchill Dew Point Humidity Pressure Visibility Wind Dir Wind Speed Gust Speed Precip Events Conditions
12:15 AM 33.8 °F 30.8 °F 26.6 °F 75% 29.67 in 10.0 mi South 3.5 mph - N/A   Unknown
12:35 AM 33.8 °F 30.8 °F 26.6 °F 75% 29.68 in 10.0 mi South 3.5 mph - N/A   Unknown
12:55 AM 33.8 °F 30.8 °F 28.4 °F 81% 29.69 in 10.0 mi South 3.5 mph - N/A   Unknown
1:15 AM 33.8 °F - 26.6 °F 75% 29.69 in 10.0 mi Calm Calm - N/A   Unknown
1:35 AM 32.0 °F - 26.6 °F 80% 29.69 in 10.0 mi Calm Calm - N/A   Unknown
1:55 AM 32.0 °F - 26.6 °F 80% 29.68 in 10.0 mi Calm Calm - N/A   Unknown
2:15 AM 30.2 °F - 26.6 °F 86% 29.68 in 10.0 mi Calm Calm - N/A   Unknown
2:35 AM 28.4 °F 24.6 °F 24.8 °F 86% 29.71 in 10.0 mi SSW 3.5 mph - N/A   Unknown
2:55 AM 30.2 °F - 26.6 °F 86% 29.71 in 10.0 mi Calm Calm - N/A   Unknown
3:15 AM 30.2 °F - 28.4 °F 93% 29.71 in 10.0 mi Calm Calm - N/A   Unknown
3:35 AM 30.2 °F - 26.6 °F 86% 29.71 in 10.0 mi Calm Calm - N/A   Unknown
3:55 AM 28.4 °F - 24.8 °F 86% 29.72 in 10.0 mi Calm Calm - N/A   Unknown
4:15 AM 28.4 °F - 26.6 °F 93% 29.72 in 10.0 mi Calm Calm - N/A   Unknown
4:35 AM 26.6 °F 22.6 °F 24.8 °F 93% 29.71 in 10.0 mi East 3.5 mph - N/A   Unknown
5:15 AM 28.4 °F - 26.6 °F 93% 29.71 in 10.0 mi Calm Calm - N/A   Unknown
5:35 AM 28.4 °F - 26.6 °F 93% 29.71 in 10.0 mi Calm Calm - N/A   Unknown
6:15 AM 28.4 °F - 26.6 °F 93% 29.73 in 10.0 mi Calm Calm - N/A   Unknown
6:35 AM 28.4 °F 24.6 °F 26.6 °F 93% 29.73 in 10.0 mi North 3.5 mph - N/A   Unknown
6:55 AM 30.2 °F 26.7 °F 26.6 °F 86% 29.73 in 10.0 mi North 3.5 mph - N/A   Unknown
7:15 AM 28.4 °F - 26.6 °F 93% 29.73 in 10.0 mi Calm Calm - N/A   Unknown
7:35 AM 28.4 °F - 26.6 °F 93% 29.74 in 10.0 mi Calm Calm - N/A   Unknown
7:55 AM 30.2 °F 26.7 °F 26.6 °F 86% 29.74 in 10.0 mi East 3.5 mph - N/A   Unknown
8:15 AM 30.2 °F 26.7 °F 28.4 °F 93% 29.74 in 10.0 mi East 3.5 mph - N/A   Unknown
8:35 AM 32.0 °F 28.7 °F 28.4 °F 87% 29.75 in 10.0 mi East 3.5 mph - N/A   Unknown
8:55 AM 33.8 °F 29.6 °F 30.2 °F 87% 29.75 in 10.0 mi ESE 4.6 mph - N/A   Unknown
9:15 AM 33.8 °F - 30.2 °F 87% 29.74 in 10.0 mi Calm Calm - N/A   Unknown
9:35 AM 35.6 °F 30.7 °F 30.2 °F 81% 29.73 in 5.0 mi North 5.8 mph - N/A   Haze
9:55 AM 35.6 °F 28.6 °F 30.2 °F 81% 29.72 in 10.0 mi NNE 9.2 mph - N/A   Unknown
10:15 AM 35.6 °F 29.2 °F 30.2 °F 81% 29.72 in 10.0 mi NNE 8.1 mph - N/A   Unknown
11:15 AM 35.6 °F 29.2 °F 30.2 °F 81% 29.70 in 10.0 mi NE 8.1 mph - N/A   Unknown
11:35 AM 35.6 °F 30.7 °F 30.2 °F 81% 29.71 in 10.0 mi NE 5.8 mph - N/A   Unknown
11:55 AM 35.6 °F 28.6 °F 30.2 °F 81% 29.69 in 10.0 mi NE 9.2 mph - N/A   Unknown
12:15 PM 35.6 °F 28.6 °F 30.2 °F 81% 29.68 in 10.0 mi NE 9.2 mph 16.1 mph N/A   Unknown
12:35 PM 35.6 °F 29.2 °F 30.2 °F 81% 29.69 in 7.0 mi ENE 8.1 mph - N/A Snow Light Snow
12:55 PM 35.6 °F 29.2 °F 30.2 °F 81% 29.68 in 2.5 mi ENE 8.1 mph - N/A   Drizzle
1:35 PM 33.8 °F 27.7 °F 32.0 °F 93% 29.67 in 2.5 mi NE 6.9 mph - N/A   Light Drizzle
1:55 PM 33.8 °F 27.7 °F 32.0 °F 93% 29.68 in 1.5 mi NE 6.9 mph - N/A   Unknown
2:15 PM 33.8 °F 26.4 °F 32.0 °F 93% 29.65 in 1.0 mi NE 9.2 mph - N/A Snow Light Snow
2:35 PM 33.8 °F 27.0 °F 32.0 °F 93% 29.65 in 0.8 mi NE 8.1 mph - N/A Snow Light Snow
2:55 PM 33.8 °F 27.0 °F 32.0 °F 93% 29.65 in 1.0 mi NE 8.1 mph - N/A Snow Light Snow
3:15 PM 33.8 °F 28.6 °F 32.0 °F 93% 29.67 in 2.0 mi ENE 5.8 mph - N/A   Unknown
3:35 PM 33.8 °F 28.6 °F 32.0 °F 93% 29.68 in 2.5 mi ENE 5.8 mph - N/A   Unknown
3:55 PM 33.8 °F 27.7 °F 32.0 °F 93% 29.68 in 1.5 mi NE 6.9 mph - N/A   Unknown
4:15 PM 33.8 °F 27.7 °F 32.0 °F 93% 29.69 in 2.5 mi NNE 6.9 mph - N/A Snow Light Snow
4:35 PM 33.8 °F 28.6 °F 32.0 °F 93% 29.69 in 2.0 mi NNE 5.8 mph - N/A   Unknown
4:55 PM 33.8 °F 29.6 °F 32.0 °F 93% 29.70 in 1.0 mi North 4.6 mph - N/A Snow Light Snow
5:15 PM 33.8 °F 29.6 °F 32.0 °F 93% 29.70 in 1.5 mi North 4.6 mph - N/A Snow Light Snow
5:35 PM 33.8 °F 28.6 °F 32.0 °F 93% 29.71 in 1.8 mi North 5.8 mph - N/A Snow Light Snow
6:15 PM 33.8 °F 26.4 °F 32.0 °F 93% 29.75 in 1.8 mi North 9.2 mph - N/A Snow Light Snow
6:35 PM 33.8 °F 27.0 °F 30.2 °F 87% 29.75 in 1.8 mi North 8.1 mph - N/A Snow Light Snow
6:55 PM 33.8 °F 26.4 °F 30.2 °F 87% 29.74 in 1.8 mi North 9.2 mph - N/A Snow Light Snow
7:35 PM 32.0 °F 23.6 °F 30.2 °F 93% 29.76 in 4.0 mi NNE 10.4 mph - N/A Snow Light Snow
7:55 PM 32.0 °F 23.0 °F 30.2 °F 93% 29.76 in 4.0 mi NNE 11.5 mph 17.3 mph N/A Snow Light Snow
8:15 PM 32.0 °F 24.2 °F 28.4 °F 87% 29.77 in 4.0 mi North 9.2 mph - N/A Snow Light Snow
8:35 PM 32.0 °F 25.6 °F 28.4 °F 87% 29.78 in 5.0 mi North 6.9 mph - N/A Snow Light Snow
8:55 PM 32.0 °F 25.6 °F 28.4 °F 87% 29.80 in 7.0 mi North 6.9 mph - N/A Snow Light Snow
9:15 PM 32.0 °F 26.4 °F 28.4 °F 87% 29.82 in 7.0 mi North 5.8 mph - N/A Snow Light Snow
9:35 PM 30.2 °F 21.3 °F 28.4 °F 93% 29.83 in 7.0 mi North 10.4 mph - N/A Snow Light Snow
9:55 PM 30.2 °F 22.6 °F 28.4 °F 93% 29.85 in 10.0 mi North 8.1 mph 16.1 mph N/A Snow Light Snow
10:15 PM 30.2 °F 21.9 °F 28.4 °F 93% 29.87 in 10.0 mi NNW 9.2 mph - N/A   Unknown
10:35 PM 30.2 °F 21.3 °F 26.6 °F 86% 29.89 in 10.0 mi North 10.4 mph 16.1 mph N/A   Unknown
10:55 PM 30.2 °F 21.9 °F 26.6 °F 86% 29.91 in 10.0 mi NNW 9.2 mph - N/A   Unknown
11:15 PM 30.2 °F 20.8 °F 26.6 °F 86% 29.94 in 10.0 mi NNW 11.5 mph - N/A   Unknown
11:35 PM 30.2 °F 21.3 °F 26.6 °F 86% 29.95 in 10.0 mi NNW 10.4 mph 20.7 mph N/A Snow Light Snow